7 * 24
多渠道服务支持
STARLINK-3069是美国太空探索技术公司(SpaceX)于2021年9月14日发射的星链(Starlink)低轨互联网卫星,属于星链星座V1.5版本卫星批次,搭载了激光星间链路技术,用于增强卫星间数据传输能力。作为星链全球互联网星座部署中的一环,它运行在近地轨道,为全球偏远地区、海洋航空等场景提供宽带互联网接入服务,是星链实现全球覆盖进程中的重要组成部分,目前已投入正常运营。
美国
(US)
| 数据来源 | 国际轨道数据 |
| 星历时间: | 2026-09-11T15:38:12+0800 7小时前 查看轨道信息 |
| 半长轴: | 6630.383km |
| 偏心率: | 0.0003296 |
| 轨道倾角: | 69.995° |
| 近地点辐角 | 260.748° |
| 升交点赤经 | 127.886° |
| 平近点角 | 99.337° |
| 近地点: | 250.06km |
| 远地点: | 254.432km |
| 周期: | 89.550分钟 |
| 每日圈数: | 16.080326 |